Starlink 30268

operational
NORAD ID: 57531 Int'l Des: 2023-115 Owner: SPXS Country: US Constellation: starlink
LEOCIRCULAR

About Starlink 30268

Description loading...

Live Position

Loading 3D Globe...

Upcoming Passes

Altitude History

Altitude vs Time

uPlot chart will show altitude changes over time

Two-Line Element Set

1 57531U 23115L 26018.75643361 -.00000248 00000-0 -32932-5 0 9995
2 57531 43.0032 276.0295 0000996 264.1229 95.9500 15.02533545134803
Epoch: Jan 18, 2026 • Age: 18 hours

Current Status

Altitude 559.0 km
Velocity 7.59 km/s
Sub-Earth Point 22.25°N, 121.83°E
Launch Date Aug 8, 2023
Age 2.4 years
Type internet

Technical Details

Classification Payload
Mass 730.00 kg
Dry Mass 700.00 kg
Total Mass 730.00 kg
Length 0.30 m
Diameter 4.10 m
Span 29.00 m
Shape Box + pan
Manufacturer SPXS
Bus Type Starlink V2M
Phase Status In Orbit
Owner/State SPXS/US

Large Constellations

Loading constellations...